Skip Page Navigation
NASA JPL Caltech
NASA Logo - Jet Propulsion Laboratory + View the NASA Portal
+ Center for Near-Earth Object Studies
JPL Home Earth Solar System Stars & Galaxies Technology
JPL Solar System Dynamics
BODIES ORBITS EPHEMERIDES TOOLS PHYSICAL DATA DISCOVERY FAQ SITE MAP
IMPORTANT: The SSD Announcement email list is now available. Major changes are coming in the near future, including possible hostname and/or URL changes. To be notified of such changes, subscribe to this email list.

Please visit this page for more details.


JPL Small-Body Database Browser
Search: [ help ]  
344722 (2003 UY80)
Classification: Main-belt Asteroid          SPK-ID: 2344722
Ephemeris | Orbit Diagram | Orbital Elements | Mission Design | Physical Parameters | Discovery Circumstances ]

[ show orbit diagram ]
Orbital Elements at Epoch 2458600.5 (2019-Apr-27.0) TDB
Reference: JPL 11 (heliocentric ecliptic J2000)
 Element Value Uncertainty (1-sigma)   Units 
e .1590932033132179 5.5056e-08  
a 2.707882987191673 2.7437e-08 au
q 2.277077208561984 1.5406e-07 au
i 10.27143806172906 5.9381e-06 deg
node 82.89986045959442 3.1826e-05 deg
peri 307.5125829007135 3.6327e-05 deg
M 178.2592056792347 1.9172e-05 deg
tp 2457794.578515153999
(2017-Feb-10.07851515)
8.0166e-05 TDB
period 1627.583458812404
4.46
2.4737e-05
6.773e-08
d
yr
n .2211868141389693 3.3617e-09 deg/d
Q 3.138688765821361 3.1802e-08 au
  Orbit Determination Parameters
   # obs. used (total)      193  
   data-arc span      6626 days (18.14 yr)  
   first obs. used      2001-03-19  
   last obs. used      2019-05-10  
   planetary ephem.      DE431  
   SB-pert. ephem.      SB431-N16  
   condition code      0  
   norm. resid. RMS      .57833  
   source      ORB  
   producer      Otto Matic  
   solution date      2019-May-30 09:23:49  

Additional Information
 Earth MOID = 1.29977 au 
 Jupiter MOID = 2.31657 au 
 T_jup = 3.323 
[ show covariance matrix ]

Ephemeris | Orbit Diagram | Orbital Elements | Mission Design | Physical Parameters | Discovery Circumstances ]

Physical Parameter Table
Parameter Symbol Value Units Sigma Reference Notes
absolute magnitude H 16.2   n/a MPO437460  

344722 (2003 UY80)          Discovered 2003-Oct-16 by LONEOS at Anderson Mesa
Reference: 20121128/Numbers.arcLast Updated: 2012-12-03
Ephemeris | Orbit Diagram | Orbital Elements | Mission Design | Physical Parameters | Discovery Circumstances ]
ABOUT SSD CREDITS/AWARDS PRIVACY/COPYRIGHT GLOSSARY LINKS
FirstGov 2019-Dec-11 20:13 UT
(server date/time)  
NASA Home Page
Site Manager:   Ryan S. Park
Webmaster  Alan B. Chamberlin